Regional Weather Roundup
Issued by NWS

Home | Current Version | Previous Version | Text Only | Print | Product List | Glossary On
Versions: 1 2 3 4 5 6 7 8 9 10 11 12 13 14 15 16 17 18 19 20 21 22 23 24 25 26 27 28 29 30 31 32 33 34 35 36 37 38 39 40 41 42 43 44 45 46 47 48 49 50
000
ASUS43 KLMK 271002
RWRKY
KENTUCKY REGIONAL WEATHER ROUNDUP
NATIONAL WEATHER SERVICE LOUISVILLE KY
500 AM EST TUE JAN 27 2015

NOTE "FAIR" INDICATES FEW OR NO CLOUDS BELOW 12,000 FEET
WITH NO SIGNIFICANT WEATHER AND/OR OBSTRUCTIONS TO VISIBILITY.

KYZ001>023-026-027-061>063-070>075-271100-
WESTERN AND SOUTH CENTRAL KENTUCKY

CITY           SKY/WX    TMP DP  RH WIND       PRES   REMARKS
PADUCAH        CLOUDY    36  30  79 W8        29.92S WCI  30
HENDERSON      CLOUDY    30  28  93 NE3       29.92S
OWENSBORO      CLOUDY    31  31 100 CALM      29.92S FOG
HOPKINSVILLE   CLOUDY    34  31  89 SW1       29.90R
BOWLING GREEN  CLOUDY    32  29  88 E3        29.91R FOG
GLASGOW        NOT AVBL
$$

KYZ024-025-028>034-038-045-046-053-271100-
NORTH CENTRAL KENTUCKY

CITY           SKY/WX    TMP DP  RH WIND       PRES   REMARKS
LOUISVILLE/SDF LGT SNOW  30  27  88 NW3       29.92S FOG
LOUISVILLE/LOU CLOUDY    29  26  89 N3        29.93R
FORT KNOX      LGT SNOW  28  27  93 CALM      29.90R FOG
$$

KYZ035>037-039>044-047>052-055>060-089>105-271100-
NORTHEAST KENTUCKY

CITY           SKY/WX    TMP DP  RH WIND       PRES   REMARKS
LEXINGTON      LGT SNOW  27  25  92 CALM      29.89S FOG
COVINGTON      LGT SNOW  22  16  78 NE6       29.92R WCI  14
FRANKFORT      CLOUDY    28  25  88 CALM      29.89S FOG
$$

KYZ054-064>069-076>088-106>120-271100-
SOUTHEAST KENTUCKY

CITY           SKY/WX    TMP DP  RH WIND       PRES   REMARKS
JACKSON        CLOUDY    26  22  84 CALM      29.86R
LONDON         LGT SNOW  30  25  81 W6        29.86S WCI  24
SOMERSET       NOT AVBL
MIDDLESBORO    NOT AVBL
MONTICELLO     LGT SNOW  30  29  96 CALM      29.91F FOG
$$



USA.gov is the U.S. government's official web portal to all federal, state and local government web resources and services.